User: anonymous   Login
Location: Unspecified
(0.0000°N, 0.0000°E)
Time: 06:43:06
(UTC+00:00)
Language:

BUGSAT 1 - Orbit

View from above orbital plane
View from above orbital plane
View from above satellite
View from above satellite

Ground track
Ground track

The orbit data is extracted from the following two-line orbital elements,

1 40014U 14033E   20178.69358949 -.00000397 +00000-0 -29811-4 0  9997
2 40014 098.0644 140.7766 0030359 262.1855 097.5937 14.95462560328399
Epoch (UTC): 26 June 2020 16:38:46
Eccentricity: 0.0030359
inclination: 98.0644°
perigee height: 560 km
apogee height: 602 km
right ascension of ascending node: 140.7766°
argument of perigee: 262.1855°
revolutions per day: 14.95462560
mean anomaly at epoch: 97.5937°
orbit number at epoch: 32839

The dashed part of the orbit path shows where the satellite is in the earth's shadow,  

DLR